Tracking 28522 objects as of 28-Feb-2024
HD Live streaming from Space Station
objects crossing your sky now

ONEWEB-0169

Track ONEWEB-0169 now!
10-day predictions
ONEWEB-0169 is classified as:


NORAD ID: 48077
Int'l Code: 2021-025AM
Perigee: 1,215.2 km
Apogee: 1,218.6 km
Inclination: 87.9 °
Period: 109.6 minutes
Semi major axis: 7587 km
RCS: Unknown
Launch date: March 25, 2021
Source: United States (US)
Launch site: VOSTOCHNY COSMODROME (VOSTO)
Your satellite tracking list
Your tracking list is empty




NASA's NSSDC Master Catalog

Two Line Element Set (TLE):
1 48077U 21025AM  24058.71592856  .00000388  00000-0  10286-2 0  9996
2 48077  87.8971 127.5456 0002248 105.2344 254.9034 13.13471977141975
Source of the keplerian elements: AFSPC